Stations météo

Publicité
Abbeville, France (7005): Température de l'air & dewpoint: 12.08.2017 18:00:00 - 18.08.2017 18:00:00 (CEST)Abbeville, France (7005): Température de l'air -20cm & Température de l'air -100cm: 12.08.2017 18:00:00 - 18.08.2017 18:00:00 (CEST)Abbeville, France (7005): Vitesse du vent & gusts: 12.08.2017 18:00:00 - 18.08.2017 18:00:00 (CEST)Abbeville, France (7005): Direction du vent: 12.08.2017 18:00:00 - 18.08.2017 18:00:00 (CEST)Abbeville, France (7005): reduced air pressure: 12.08.2017 18:00:00 - 18.08.2017 18:00:00 (CEST)Abbeville, France (7005): visibility: 12.08.2017 18:00:00 - 18.08.2017 18:00:00 (CEST)Abbeville, France (7005): Ensoleillement: 12.08.2017 18:00:00 - 18.08.2017 18:00:00 (CEST)Abbeville, France (7005): Quantités de précipitations: 12.08.2017 18:00:00 - 18.08.2017 18:00:00 (CEST)
Date & Time tt [°C] td [°C] tt -20cm [°C] tt -100cm [°C] ff [km/h] ff [knt] fx [km/h] fx [knt] dd ppp [hPa] vv [km] sd [min] rr [mm]
18.08.2017 18:00:00 18,0 12,4 19,0 16,9 29 16 52 28 W 1014,4 20 24 0,0
18.08.2017 17:00:00 18,9 12,6 19,0 16,9 29 16 51 28 W 1013,9 20 11 0,0
18.08.2017 16:00:00 19,0 12,5 18,9 16,9 28 15 46 25 W 1013,6 20 17 0,0
18.08.2017 15:00:00 19,3 13,7 18,7 16,9 24 13 42 23 W 1013,2 15 33 0,0
18.08.2017 14:00:00 19,6 14,0 18,7 16,9 29 16 44 24 W 1013,2 25 17 0,0
18.08.2017 13:00:00 19,5 14,1 18,6 16,9 24 13 44 24 W 1013,5 20 2 0,0
18.08.2017 12:00:00 19,0 14,9 18,5 16,9 19 10 36 19 W 1013,3 20 0 0,0
18.08.2017 11:00:00 18,9 15,6 18,5 16,9 18 10 32 17 W 1013,3 18 0 0,0
18.08.2017 10:00:00 18,6 15,8 18,5 16,9 19 11 34 18 W 1013,0 16 0 0,0
18.08.2017 09:00:00 18,2 16,7 18,6 16,9 12 6 24 13 SW 1012,8 12 0 0,0
18.08.2017 08:00:00 17,5 16,5 18,6 16,9 5 3 12 6 SSW 1012,8 13 0 0,0
18.08.2017 07:00:00 16,9 15,8 18,7 16,9 8 5 12 6 SSE 1012,9 20 0 0,0
18.08.2017 06:00:00 16,8 15,3 18,7 16,9 4 2 7 4 SE 1013,2 15 0 0,0
18.08.2017 05:00:00 16,8 15,5 18,8 16,9 3 1 4 2 E 1013,3 20 0 0,0
18.08.2017 04:00:00 17,1 15,4 18,9 16,9 0 0 8 4 N 1013,9 20 0 0,0
18.08.2017 03:00:00 17,2 15,2 18,9 16,9 4 2 8 4 SSE 1014,1 20 0 0,0
18.08.2017 02:00:00 17,3 15,1 19,0 16,9 3 2 5 3 S 1014,2 20 0 0,0
18.08.2017 01:00:00 16,9 14,7 19,0 16,9 2 1 6 4 ESE 1014,8 20 0 0,0
18.08.2017 00:00:00 17,2 14,5 19,2 16,9 3 2 8 5 ESE 1015,0 20 0 0,0
17.08.2017 23:00:00 17,1 14,9 19,2 16,9 2 1 7 4 SW 1015,1 20 0 0,0
17.08.2017 22:00:00 16,9 14,7 19,3 16,9 0 0 12 7 N 1015,2 20 0 0,0
17.08.2017 21:00:00 18,1 14,8 19,3 16,9 11 6 27 14 W 1015,4 20 20 0,0
17.08.2017 20:00:00 20,0 13,9 19,3 16,9 19 11 33 18 W 1015,4 20 49 0,0
17.08.2017 19:00:00 21,0 14,2 19,2 16,9 20 11 37 20 W 1015,3 20 60 0,0
17.08.2017 18:00:00 20,8 13,7 19,1 16,8 24 13 42 23 W 1015,3 20 39 0,0
17.08.2017 17:00:00 20,2 16,2 19,0 16,9 24 13 36 20 W 1015,4 30 1 0,0
17.08.2017 16:00:00 20,1 16,7 18,9 16,8 22 12 37 20 W 1015,3 30 0 0,0
17.08.2017 15:00:00 19,5 18,5 18,8 16,8 16 8 39 21 W 1015,2 15 0 5,9
17.08.2017 14:00:00 21,0 18,0 18,7 16,8 16 8 34 18 SW 1014,7 20 0 0,0
17.08.2017 13:00:00 20,4 17,4 18,6 16,8 19 11 34 18 SW 1014,9 12 0 0,0
17.08.2017 12:00:00 19,6 17,2 18,6 16,8 16 9 34 18 SW 1014,9 40 0 0,0
17.08.2017 11:00:00 18,6 16,4 18,6 16,8 13 7 27 15 SSW 1014,8 40 0 0,0
17.08.2017 10:00:00 17,8 16,1 18,7 16,8 10 5 24 13 SSW 1014,7 40 0 0,0
17.08.2017 09:00:00 16,4 15,1 18,8 16,8 11 6 22 12 S 1014,6 20 0 1,0
17.08.2017 08:00:00 16,8 14,3 18,8 16,8 7 4 23 12 SSW 1014,4 4,0 0 2,2
17.08.2017 07:00:00 17,8 13,7 19,0 16,8 11 6 18 10 S 1014,3 30 0 0,0
17.08.2017 06:00:00 18,1 13,6 19,1 16,8 11 6 20 11 SSE 1014,6 20 0 0,0
17.08.2017 05:00:00 18,5 13,6 19,2 16,8 10 6 16 9 SSE 1014,9 20 0 0,0
17.08.2017 04:00:00 18,3 14,0 19,3 16,8 9 5 17 9 S 1015,8 20 0 0,0
17.08.2017 03:00:00 18,2 14,3 19,5 16,8 10 6 14 8 SSE 1015,9 20 0 0,0
17.08.2017 02:00:00 18,0 13,9 19,6 16,8 7 4 14 8 S 1016,6 20 0 0,0
17.08.2017 01:00:00 18,7 13,3 19,7 16,8 11 6 19 10 SSE 1016,8 20 0 0,0
17.08.2017 00:00:00 19,6 12,8 19,8 16,8 9 5 14 8 SE 1017,3 20 0 0,0
16.08.2017 23:00:00 19,3 13,0 19,9 16,8 7 4 11 6 SE 1017,8 20 0 0,0
16.08.2017 22:00:00 19,0 13,8 20,0 16,8 9 5 13 7 E 1018,2 20 0 0,0
16.08.2017 21:00:00 20,5 13,2 20,0 16,8 8 4 10 5 ENE 1018,5 20 28 0,0
16.08.2017 20:00:00 22,5 12,1 19,9 16,8 6 4 12 6 ENE 1018,6 20 54 0,0
16.08.2017 19:00:00 22,9 11,9 19,7 16,8 6 3 12 6 ENE 1018,8 20 53 0,0
16.08.2017 18:00:00 23,1 11,8 19,3 16,8 4 2 11 6 W 1019,9 20 33 0,0
16.08.2017 17:00:00 23,1 11,5 19,0 16,8 9 5 18 10 WSW 1020,1 30 26 0,0
16.08.2017 16:00:00 23,5 11,2 18,7 16,8 3 1 17 9 SW 1020,2 30 60 0,0
16.08.2017 15:00:00 22,2 12,2 18,3 16,8 7 4 17 9 SE 1020,5 30 60 0,0
16.08.2017 14:00:00 20,8 12,7 18,1 16,8 7 4 18 10 WSW 1021,0 30 9 0,0
16.08.2017 13:00:00 19,1 13,7 18,0 16,8 4 2 14 7 WSW 1021,5 25 0 0,0
16.08.2017 12:00:00 18,5 14,8 17,9 16,8 4 2 14 8 SW 1021,6 25 0 0,0
16.08.2017 11:00:00 17,5 14,8 17,8 16,8 7 4 12 6 WSW 1021,6 20 20 0,0
16.08.2017 10:00:00 16,2 15,1 17,8 16,8 5 3 9 5 SSW 1021,8 16 7 0,0
16.08.2017 09:00:00 14,8 14,0 18,0 16,8 3 1 8 5 S 1021,3 16 47 0,0
16.08.2017 08:00:00 13,5 12,9 18,1 16,8 3 1 8 5 SSW 1021,3 13 14 0,0
16.08.2017 07:00:00 12,3 11,5 18,3 16,8 5 3 11 6 SSW 1021,1 10 0 0,0
16.08.2017 06:00:00 12,6 11,8 18,5 16,8 5 3 11 6 S 1020,7 13 0 0,0
16.08.2017 05:00:00 12,5 11,6 18,7 16,7 5 3 13 7 SSW 1020,8 12 0 0,0
16.08.2017 04:00:00 12,8 11,9 18,9 16,8 4 2 10 5 SSW 1020,7 18 0 0,0
16.08.2017 03:00:00 13,4 12,5 19,1 16,7 6 3 9 5 WSW 1020,7 20 0 0,2
16.08.2017 02:00:00 13,6 12,5 19,3 16,8 8 4 11 6 WSW 1020,8 20 0 0,0
16.08.2017 01:00:00 14,1 12,8 19,5 16,7 8 5 13 7 SW 1020,6 20 0 0,0
16.08.2017 00:00:00 14,4 13,1 19,7 16,7 9 5 11 6 W 1020,4 20 0 0,0
15.08.2017 23:00:00 15,2 13,7 19,8 16,7 8 4 14 8 WSW 1020,3 20 0 0,0
15.08.2017 22:00:00 15,9 14,1 19,9 16,7 9 5 17 9 W 1019,7 20 0 0,0
15.08.2017 21:00:00 17,3 14,2 20,0 16,7 14 7 24 13 W 1018,9 20 45 0,0
15.08.2017 20:00:00 18,9 13,7 20,0 16,7 17 9 29 16 WNW 1018,4 20 60 0,0
15.08.2017 19:00:00 20,0 14,6 19,9 16,7 21 11 34 18 WNW 1017,5 20 60 0,0
15.08.2017 18:00:00 20,6 14,0 19,8 16,7 24 13 34 19 WNW 1017,2 20 60 0,0
15.08.2017 17:00:00 20,4 15,6 19,6 16,7 21 12 32 18 W 1017,1 40 31 0,0
15.08.2017 16:00:00 20,6 16,2 19,3 16,7 22 12 34 18 WNW 1016,8 30 35 0,0
15.08.2017 15:00:00 20,9 16,7 19,0 16,7 20 11 35 19 W 1016,2 30 24 0,0
15.08.2017 14:00:00 21,3 17,3 18,8 16,7 19 10 34 18 WNW 1015,2 30 38 0,0
15.08.2017 13:00:00 21,2 16,6 18,6 16,7 17 9 26 14 W 1014,5 30 21 0,0
15.08.2017 12:00:00 20,7 17,3 18,5 16,7 10 5 15 8 WNW 1013,8 30 0 0,0
15.08.2017 11:00:00 20,3 16,9 18,4 16,7 6 3 12 6 ESE 1012,9 30 28 0,0
15.08.2017 10:00:00 19,0 16,0 18,4 16,7 8 5 16 9 E 1012,7 30 32 0,0
15.08.2017 09:00:00 17,4 15,6 18,5 16,7 6 4 17 9 ESE 1013,0 30 39 0,0
15.08.2017 08:00:00 16,0 14,7 18,6 16,7 11 6 15 8 ENE 1011,8 17 0 1,9
15.08.2017 07:00:00 17,5 14,6 18,7 16,7 4 2 37 20 SE 1013,1 6 0 2,8
15.08.2017 06:00:00 17,8 12,9 18,9 16,7 12 7 21 12 SE 1010,7 20 0 0,0
15.08.2017 05:00:00 17,7 12,6 19,0 16,7 12 7 18 10 ESE 1012,1 20 0 0,0
15.08.2017 04:00:00 16,7 12,4 19,2 16,7 9 5 16 9 ESE 1013,2 20 0 0,0
15.08.2017 03:00:00 17,1 12,2 19,4 16,7 10 5 13 7 ESE 1013,8 20 0 0,0
15.08.2017 02:00:00 17,0 12,1 19,5 16,6 8 4 16 9 ESE 1014,1 20 0 0,0
15.08.2017 01:00:00 17,7 12,4 19,7 16,7 7 4 11 6 ESE 1014,6 20 0 0,0
15.08.2017 00:00:00 19,1 12,4 19,8 16,7 6 3 11 6 ESE 1015,0 20 0 0,0
14.08.2017 23:00:00 18,6 13,5 19,9 16,7 10 6 14 7 E 1014,7 20 0 0,0
14.08.2017 22:00:00 19,8 13,5 19,9 16,7 9 5 11 6 E 1015,0 20 0 0,0
14.08.2017 21:00:00 21,2 14,8 19,9 16,7 4 2 8 4 N 1015,1 20 0 0,0
14.08.2017 20:00:00 23,5 11,9 19,8 16,7 4 2 11 6 SW 1015,3 20 36 0,0
14.08.2017 19:00:00 24,3 10,6 19,6 16,7 6 3 18 10 SE 1015,5 20 29 0,0
14.08.2017 18:00:00 24,9 11,5 19,4 16,7 4 2 22 12 S 1015,7 20 58 0,0
14.08.2017 17:00:00 24,4 11,0 19,1 16,8 7 4 21 11 SSE 1015,9 50 57 0,0
14.08.2017 16:00:00 24,0 9,9 18,6 16,7 11 6 24 13 E 1016,3 50 56 0,0
14.08.2017 15:00:00 24,6 10,8 18,2 16,7 3 1 17 9 WSW 1016,9 50 31 0,0
14.08.2017 14:00:00 23,6 9,2 17,9 16,7 9 5 20 11 SSE 1017,2 50 37 0,0
14.08.2017 13:00:00 22,9 9,7 17,5 16,7 4 2 19 10 SSE 1018,0 30 45 0,0
14.08.2017 12:00:00 22,1 13,4 17,2 16,7 6 3 16 8 SSE 1018,4 30 60 0,0
14.08.2017 11:00:00 20,6 13,5 17,2 16,7 6 3 14 7 SSE 1018,8 30 60 0,0
14.08.2017 10:00:00 18,3 13,6 17,2 16,7 10 5 14 8 SSE 1018,9 25 29 0,0
14.08.2017 09:00:00 15,7 12,3 17,3 16,7 6 3 9 5 ESE 1019,2 20 60 0,0
14.08.2017 08:00:00 13,5 10,8 17,5 16,7 5 3 10 5 ESE 1019,2 30 10 0,0
14.08.2017 07:00:00 11,7 9,1 17,7 16,7 5 3 9 5 E 1019,3 30 0 0,0
14.08.2017 06:00:00 13,7 8,5 17,9 16,7 8 4 9 5 E 1019,3 30 0 0,0
14.08.2017 05:00:00 13,4 8,2 18,1 16,7 3 2 5 3 SE 1019,7 20 0 0,0
14.08.2017 04:00:00 13,7 7,7 18,2 16,7 3 2 5 3 ESE 1019,9 20 0 0,0
14.08.2017 03:00:00 13,5 8,5 18,4 16,7 0 0 4 2 N 1020,4 20 0 0,0
14.08.2017 02:00:00 14,4 9,0 18,6 16,7 2 1 9 5 ENE 1020,7 20 0 0,0
14.08.2017 01:00:00 14,8 9,2 18,8 16,7 7 4 16 8 NE 1021,1 20 0 0,0
14.08.2017 00:00:00 15,2 9,5 19,0 16,7 11 6 16 8 ENE 1021,4 20 0 0,0
13.08.2017 23:00:00 15,3 9,6 19,1 16,7 10 5 15 8 ENE 1021,6 20 0 0,0
13.08.2017 22:00:00 15,8 11,2 19,2 16,7 8 4 13 7 NNE 1021,6 20 0 0,0
13.08.2017 21:00:00 17,6 10,7 19,2 16,7 9 5 16 9 N 1021,2 20 14 0,0
13.08.2017 20:00:00 19,3 11,1 19,0 16,7 13 7 19 11 NW 1020,7 20 19 0,0
13.08.2017 19:00:00 20,8 12,2 18,8 16,7 11 6 23 12 NW 1020,6 20 58 0,0
13.08.2017 18:00:00 21,7 12,3 18,6 16,7 9 5 21 11 NW 1020,7 20 60 0,0
13.08.2017 17:00:00 21,5 12,1 18,4 16,7 9 5 24 13 N 1020,9 30 60 0,0
13.08.2017 16:00:00 20,3 13,7 18,1 16,7 10 6 20 11 WNW 1021,3 30 14 0,0
13.08.2017 15:00:00 20,0 13,2 17,8 16,7 14 7 29 16 WNW 1021,3 30 16 0,0
13.08.2017 14:00:00 20,6 14,0 17,5 16,7 16 9 25 13 NW 1021,4 30 23 0,0
13.08.2017 13:00:00 19,6 13,1 17,2 16,7 12 6 21 11 W 1021,4 30 20 0,0
13.08.2017 12:00:00 19,9 13,4 17,0 16,7 10 5 16 9 NW 1021,4 30 42 0,0
13.08.2017 11:00:00 19,2 13,4 16,8 16,7 8 4 16 9 WNW 1021,2 25 60 0,0
13.08.2017 10:00:00 18,2 13,9 16,8 16,7 6 3 15 8 WNW 1020,9 20 60 0,0
13.08.2017 09:00:00 16,4 14,6 16,9 16,7 8 4 9 5 W 1020,6 20 48 0,0
13.08.2017 08:00:00 14,3 13,2 16,9 16,7 6 3 10 5 WSW 1020,1 20 5 0,0
13.08.2017 07:00:00 14,1 12,8 17,0 16,7 5 3 15 8 SW 1019,8 20 0 0,0
13.08.2017 06:00:00 14,0 12,7 17,0 16,7 8 4 16 9 SW 1019,6 20 0 0,0
13.08.2017 05:00:00 13,8 12,5 17,1 16,7 11 6 16 9 SW 1019,6 20 0 0,0
13.08.2017 04:00:00 14,4 12,6 17,3 16,8 8 4 14 8 SW 1019,7 20 0 0,0
13.08.2017 03:00:00 14,3 12,7 17,3 16,7 8 4 13 7 SSW 1019,7 20 0 0,0
13.08.2017 02:00:00 14,2 12,8 17,4 16,7 6 3 11 6 SSW 1019,9 20 0 0,0
13.08.2017 01:00:00 14,2 12,2 17,5 16,7 4 2 16 9 S 1019,9 20 0 0,0
13.08.2017 00:00:00 14,5 12,7 17,7 16,8 9 5 15 8 WSW 1019,7 20 0 0,0
12.08.2017 23:00:00 14,2 11,7 17,8 16,7 10 5 18 10 WSW 1019,4 20 0 0,0
12.08.2017 22:00:00 15,1 11,7 17,8 16,7 13 7 29 15 WSW 1019,1 20 0 0,0
12.08.2017 21:00:00 16,6 13,5 17,8 16,8 20 11 41 22 W 1018,7 20 23 0,0
12.08.2017 20:00:00 17,2 14,1 17,8 16,8 21 12 41 22 W 1018,3 20 8 0,0
12.08.2017 19:00:00 17,5 14,6 17,7 16,8 23 12 41 22 W 1018,2 20 3 0,2
12.08.2017 18:00:00 18,2 15,6 17,6 16,8 20 11 33 18 W 1017,9 20 1 0,0

tt = Température de l'air
td = dewpoint
tt -20cm = Température de l'air -20cm
tt -100cm = Température de l'air -100cm
ff = Vitesse du vent
fx = gusts
dd = Direction du vent
ppp = reduced air pressure
vv = visibility
sd = Ensoleillement
rr = Quantités de précipitations

stations d'obs. à proximité